Regional Weather Roundup
Issued by NWS Green Bay, WI

Home | Current Version | Previous Version | Graphics & Text | Print | Product List | Glossary Off
Versions: 1 2 3 4 5 6 7 8 9 10 11 12 13 14 15 16 17 18 19 20 21 22 23 24 25 26 27 28 29 30 31 32 33 34 35 36 37 38 39 40 41 42 43 44 45 46 47 48 49 50

000
ASUS43 KGRB 011359
RWRGRB

NORTH-CENTRAL AND NORTHEAST WISCONSIN REGIONAL WEATHER ROUNDUP
NATIONAL WEATHER SERVICE GREEN BAY WI
900 AM CDT MON SEP 01 2014

WIZ005-009-010>012-018-019-011500-
NORTH CENTRAL WISCONSIN

CITY           SKY/WX    TMP DP  RH WIND       PRES   REMARKS
IRONWOOD       NOT AVBL
MANITOWISH WTR NOT AVBL
ARBOR VITAE    NOT AVBL
EAGLE RIVER    NOT AVBL
LAND O LAKES   NOT AVBL
RHINELANDER    LGT RAIN  62  61  96 S6        29.68R
PHILLIPS       NOT AVBL
ANTIGO         NOT AVBL
TOMAHAWK       NOT AVBL
MERRILL        NOT AVBL
$$

WIZ013-073-011500-
NORTHEAST WISCONSIN

CITY           SKY/WX    TMP DP  RH WIND       PRES   REMARKS
IRON MOUNTAIN  LGT RAIN  68  66  93 S6        29.65R FOG
MARINETTE      CLOUDY    68  64  88 S8        29.68R
$$

WIZ017-030-035>037-045-011500-
CENTRAL WISCONSIN

CITY           SKY/WX    TMP DP  RH WIND       PRES   REMARKS
MEDFORD        NOT AVBL
WAUSAU         LGT RAIN  65  61  87 S6        29.67F
MOSINEE        NOT AVBL
MARSHFIELD     RAIN      64  62  93 SW8       29.69R FOG
WISC RAPIDS    CLOUDY    65  63  93 SW7       29.71S
STEVENS POINT  NOT AVBL
WAUPACA        NOT AVBL
SHAWANO        NOT AVBL
CLINTONVILLE   NOT AVBL
$$

WIZ038-039-048-051-011500-
FOX VALLEY

CITY           SKY/WX    TMP DP  RH WIND       PRES   REMARKS
NWS GREEN BAY  CLOUDY    70  68  93 S5        29.69R
APPLETON       PTSUNNY   70  66  88 SW6       29.69R
OSHKOSH        LGT RAIN  70  66  87 SW8       29.71R
FOND DU LAC    LGT RAIN  70  67  90 W9        29.72R
$$

WIZ022-050-052-011500-
EAST CENTRAL WISCONSIN

CITY           SKY/WX    TMP DP  RH WIND       PRES   REMARKS
STURGEON BAY   CLOUDY    70  66  88 S14       29.69R
MANITOWOC      NOT AVBL
SHEBOYGAN      CLOUDY    71  69  93 S14       29.69R FOG
$$

LMZ563-521-522-541>543-011500-
LAKESHORE

STATION/POSITION TIME  TEMP    WIND        PRES    VSBY  WAVE
                       AIR SEA DIR/SP/G                  HT/PER
                 (UTC) (F)     (DEG/KT/KT) (MB)    (MI)  (FT/S)
SHEBOYGAN LKSHOR 1300   67 54  140/ 19/ 20 1003.5F
KEWAUNEE LKSHORE 1300   61     190/  9/ 10 1003.5F
NORTHPORT PIER   1300   68     160/  9/ 14 1004.7F
N MID LAKE BUOY  1300   68 65  190/ 19/ 21 1004.4F         4/ 5
S GREEN BAY BUOY 1300   70     VRB  8/ 12  1005.2R
CHAMBERS ISLAND  1300   69     140/  6/ 12 1004.7R
MENOMINEE LKSHOR 1300   68     170/  6/  9 1005.0S
$$


USA.gov is the U.S. government's official web portal to all federal, state and local government web resources and services.